Location: Bijele Vode
(45.2833°N, 16.2000°E)
Time: 10:15:58
(UTC+00:00)

CZ-2C R/B - Pass Details

Date: 22 January 2021
Orbit: 390 x 584 km, 35.0° (Epoch: 27 February)

Event Time Altitude Azimuth Distance (km) Brightness Sun altitude
Exits shadow 04:17:47 13° 191° (S) 1,608 3.6 -22.3°
Maximum altitude 04:19:12 15° 168° (SSE) 1,482 3.7 -22.0°
Drops below altitude 10° 04:21:32 10° 132° (SE) 1,744 4.6 -21.6°
Sets 04:24:28 0° 109° (ESE) 2,585 6.2 -21.1°
